Location: Engelmannsreuth
(49.8125°N, 11.6497°E)
Time: 04:05:09
(UTC+00:00)

CZ-4B R/B - Pass Details

Date: 17 February 2020
Orbit: 487 x 652 km, 97.9° (Epoch: 09 April)

Event Time Altitude Azimuth Distance (km) Brightness Sun altitude
Rises 05:12:45 0° 2° (N) 2,675 6.3 -11.6°
Reaches altitude 10° 05:15:15 10° 346° (NNW) 1,754 5.2 -11.2°
Maximum altitude 05:18:06 21° 297° (WNW) 1,186 4.0 -10.8°
Enters shadow 05:20:16 13° 254° (WSW) 1,519 4.5 -10.4°
